Вернуться в каталог

STARLINK-4259

АктивенСвязьVLEO
NORAD 52987·PAYLOAD·🇺🇸 United States

Запущен Jul 7, 2022 с Cape Canaveral Space Force Station

Loading…

Ближайшие Пролёты (ближайшие 24 часа)

TLE

СвежийSource: CelesTrak SupGP

Эпоха: Sep 15, 2026, 02:34 UTC

1 52987C 22076B   26258.10743056  .00038993  00000+0  12540-2 0  2580
2 52987  53.1573 322.8729 0001164  94.4764  25.0595 15.31680413    15

Отслеживайте STARLINK-4259 в реальном времени с AllMySat

Download on the App Store